Hourly Data Report for March 26, 2003

SHERBROOKE A
QUEBEC

45°26'00.000" N
71°41'00.000" W
241.40 m
7028124
71610
YSC

Download Data

Hourly Data (March 2003)
Hourly Data Report for March 26, 2003
TIME
LST
Temp Definition
°C
Dew Point Definition
°C
Rel Hum Definition
%
Precip. Amount Definition
mm

Wind Dir Definition
10's deg

Wind Spd Definition
km/h
Visibility Definition
km
Stn Press Definition
kPa
Hmdx Definition


Wind Chill Definition


Weather Definition


00:00 5.2 5.2 100     0 0.6 98.04      
01:00 5.8 5.7 99   20 6 1.9 98.03      
02:00 2.9 2.9 100     0 0.2 98.04      
03:00 3.5 3.5 100   27 4 0.2 98.08      
04:00 2.5 2.5 100     0 0.2 98.04      
05:00 3.0 3.0 100   9 6 0.2 97.99     Rain
06:00 3.4 3.4 100   25 4 0.2 98.06     Rain
07:00 3.6 3.6 100   19 4 0.8 98.06     Rain
08:00 3.2 3.2 100   28 4 0.4 98.09     Rain, Fog
09:00 3.8 3.6 99   28 15 4.8 98.16     Rain, Fog
10:00 3.4 3.3 99   27 7 3.2 98.21     Rain, Fog
11:00 4.4 4.2 99   28 9 12.9 98.21     Rain
12:00 4.1 3.7 97   27 7 19.3 98.17     Rain
13:00 4.1 3.5 96   28 7 12.9 98.18     Rain
14:00 5.0 4.4 96   27 6 16.1 98.18     Rain
15:00 4.7 4.1 96     0 19.3 98.15     Cloudy
16:00 4.9 4.0 94   16 7 24.1 98.15     Mostly Cloudy
17:00 4.7 3.7 93   16 6 24.1 98.16     Mostly Cloudy
18:00 3.8 3.5 98     0 11.3 98.19      
19:00 2.4 2.2 99     0 0.6 98.24      
20:00 2.1 2.1 100     0 0.3 98.27      
21:00 2.2 2.2 100     0 0.3 98.27      
22:00 2.0 2.0 100   8 6 0.3 98.23      
23:00 1.9 1.9 100   17 4 2.4 98.21     Rain

Notes on Data Quality.

Legend

  • E = Estimated
  • M = Missing
  • NA = Not Available*
  • [empty] = Indicates an unobserved value
Date modified: